Wind_Speed
24 25 24 24 24 23 22 20 18 18 18 17 16 16 16 15 15 15 15 14 14 14 13 13 14 13 13 12 12 11 11 11 11 11 10 10 10 10 9 9 10 10 10 10 10 9 9 10 9
26 26 26 26 26 25 22 21 20 20 19 18 18 18 17 17 17 16 16 16 15 15 15 15 15 15 15 15 14 14 13 13 13 13 12 12 12 12 12 12 11 11 11 11 11 12 12 12 11
27 28 28 28 27 26 24 23 23 22 21 20 20 20 19 19 18 18 17 17 17 17 17 17 17 17 17 17 16 16 16 16 15 15 15 14 14 14 14 14 14 13 13 14 14 14 14 14 14
28 29 30 30 28 27 26 25 25 24 23 22 22 21 21 21 20 20 19 18 18 18 18 18 18 18 18 18 18 18 18 18 18 17 17 16 16 16 16 16 16 16 16 16 17 17 16 17 17
29 30 30 30 29 27 27 27 27 26 26 25 24 23 22 22 22 22 21 20 20 20 20 20 20 20 20 20 19 20 20 20 20 19 19 18 18 18 18 18 18 18 19 19 19 19 19 19 19
30 31 31 30 29 28 28 28 28 28 28 27 26 25 24 23 23 23 23 22 22 22 22 22 22 22 22 22 22 21 21 21 21 21 21 20 20 20 20 20 20 21 21 21 21 22 22 22 22
31 32 31 30 29 28 28 28 28 28 28 28 27 27 26 25 24 24 24 24 24 24 24 24 24 24 24 24 23 23 23 23 23 22 22 22 22 22 22 22 22 23 23 23 24 24 25 25 25
31 32 32 30 29 28 28 28 28 28 28 28 28 27 27 26 26 25 25 25 25 26 26 26 26 26 26 26 26 25 25 24 24 24 23 23 24 25 25 25 25 25 25 26 26 26 26 27 27
32 32 31 30 29 29 29 29 29 29 29 29 29 28 28 28 28 27 27 27 26 26 27 27 27 27 27 27 27 26 26 26 25 25 24 25 25 26 26 27 27 28 28 28 28 29 29 29 29
34 33 31 30 31 30 31 31 31 30 30 30 30 30 30 30 30 29 29 29 28 27 28 28 28 28 28 28 27 27 27 27 27 27 26 26 27 28 28 29 29 30 30 31 31 32 32 32 32
34 34 32 32 33 33 32 32 33 32 31 31 31 31 31 31 31 30 30 30 29 28 28 28 28 29 29 28 28 27 27 27 27 28 28 28 29 29 30 30 31 32 32 33 33 33 34 34 33
34 34 34 33 34 34 33 33 34 33 32 32 32 32 32 32 32 32 31 31 30 30 30 29 29 30 29 29 29 29 29 29 29 29 30 31 31 31 32 32 32 33 33 34 34 34 34 35 35
35 34 34 34 34 35 35 35 35 34 33 33 33 33 33 33 32 32 32 32 32 31 32 31 31 31 30 30 30 30 30 30 31 31 31 32 32 32 33 33 33 34 34 34 34 35 35 36 36
35 35 35 35 35 35 36 36 36 34 34 34 34 34 34 33 33 33 32 33 33 33 31 31 32 31 30 30 30 31 31 31 31 32 33 34 34 34 34 34 35 35 35 35 36 36 37 37 38
36 36 37 36 36 35 36 37 36 35 35 35 34 34 34 34 33 32 33 33 34 33 33 32 32 32 32 32 32 32 33 33 33 34 34 35 35 36 37 37 38 37 37 37 38 38 39 40 41
36 37 38 37 37 37 37 37 35 36 36 35 35 34 34 34 34 33 33 34 35 35 35 34 33 32 32 33 35 35 35 35 35 36 36 37 37 39 39 39 39 39 40 40 40 40 41 42 42
35 36 37 37 38 37 38 37 36 36 36 36 36 35 35 35 35 35 35 35 35 36 36 36 35 35 34 34 34 35 35 36 37 37 37 38 39 39 39 39 40 40 41 41 41 42 42 42 42
34 35 36 37 38 38 38 37 36 37 37 37 37 37 37 37 36 37 36 36 36 37 37 36 36 37 37 36 36 36 36 37 38 39 39 40 41 41 41 41 40 40 41 41 42 42 43 43 43
34 35 36 37 38 39 39 38 36 37 38 37 37 37 37 37 38 38 38 37 37 37 37 37 37 38 38 38 37 37 38 39 39 39 40 41 41 41 42 42 41 41 42 42 43 44 44 44 44
34 35 36 37 38 39 39 39 38 38 38 37 37 37 37 37 38 38 38 38 38 37 37 37 38 38 39 40 40 39 39 39 40 40 40 41 41 42 42 42 42 43 43 44 44 45 45 45 45
34 34 35 36 37 38 39 39 37 37 38 37 38 37 37 37 37 37 37 38 38 38 38 38 39 40 40 40 41 41 42 42 41 41 41 41 42 41 41 42 43 43 44 45 45 45 45 45 45
33 34 35 36 37 37 37 39 37 36 36 36 36 36 37 37 37 37 37 38 38 38 39 39 40 40 41 41 42 42 42 42 41 41 41 42 42 42 42 43 44 44 45 45 45 45 45 45 46
34 34 35 36 37 37 37 38 37 35 35 34 34 35 35 35 35 36 36 37 37 38 39 40 40 40 41 41 41 42 42 42 41 41 41 41 42 43 43 43 44 45 45 45 45 45 46 46 46
34 34 35 36 36 37 35 37 37 35 35 34 34 35 35 35 35 35 36 36 37 38 39 39 40 40 40 40 41 41 42 41 41 41 40 41 41 43 43 44 44 44 44 44 45 45 46 46 46
32 33 34 35 36 36 34 36 36 34 35 35 35 35 35 36 36 36 36 37 37 38 39 40 40 40 40 40 41 41 41 41 41 42 41 42 42 43 43 44 44 44 45 45 45 45 46 46 45
31 32 32 35 35 35 34 35 33 33 34 34 35 35 36 36 36 36 37 38 38 39 40 40 41 41 41 41 41 42 42 42 42 42 43 43 43 43 43 44 44 44 45 45 45 46 46 46 46
31 31 31 34 35 35 35 34 32 33 33 33 33 34 35 35 36 37 38 39 39 40 40 41 42 42 42 42 43 43 43 44 43 44 44 45 45 45 45 44 44 45 45 45 46 46 46 46 47
32 31 31 33 35 35 35 33 32 31 32 32 33 33 34 35 36 38 38 39 40 41 41 42 42 43 43 43 44 44 44 44 44 44 45 45 46 46 47 46 46 46 46 46 45 45 46 47 47
31 32 32 34 35 36 35 33 31 32 32 32 32 33 34 35 36 38 39 39 40 40 41 42 42 43 43 43 44 44 45 45 45 44 45 45 45 46 47 47 47 46 46 45 45 46 46 46 45
31 32 32 34 35 35 36 33 32 32 32 33 33 34 35 36 37 38 38 38 39 39 40 41 42 42 43 43 44 44 44 44 44 44 45 45 45 46 46 47 46 46 46 45 46 46 45 45 44
Wind_Direction
244 244 244 244 245 245 247 249 250 249 248 247 248 248 248 250 251 251 251 252 253 256 258 259 261 263 265 265 266 266 264 263 262 262 264 265 266 269 273 275 277 278 280 279 280 282 282 283 286
244 244 244 244 244 245 246 248 249 248 249 248 248 249 249 250 252 254 255 254 255 257 259 261 262 263 264 264 264 265 264 264 263 262 263 264 266 267 269 271 274 276 275 274 275 278 280 281 284
244 244 244 245 245 245 245 245 247 248 249 249 249 249 250 251 252 254 256 257 258 259 260 261 261 263 266 266 264 264 263 263 262 262 262 264 265 267 268 268 270 272 274 273 274 277 278 279 280
246 245 244 244 244 244 245 246 247 248 248 249 251 251 251 252 253 255 256 258 259 260 261 261 262 263 265 266 264 262 262 262 262 262 262 262 264 266 267 268 269 271 273 274 275 276 278 279 278
246 244 243 244 244 243 243 244 245 247 248 248 249 250 251 252 253 255 257 258 258 259 260 261 263 264 264 264 264 263 261 261 261 261 261 262 263 265 267 268 269 271 273 274 275 276 276 278 279
245 244 244 244 245 245 244 245 245 246 247 248 248 249 251 252 253 255 256 257 257 258 260 260 261 262 263 263 263 263 261 260 259 260 260 261 263 264 265 267 268 270 272 274 274 274 276 276 277
246 245 245 245 245 246 246 246 246 246 247 248 249 249 251 252 253 255 257 258 259 259 260 261 260 261 262 263 263 262 262 261 260 260 261 262 263 264 266 267 268 270 272 273 273 274 275 276 276
246 246 246 245 246 247 248 247 246 246 247 248 249 250 250 251 253 255 257 258 259 260 261 262 261 261 262 264 264 262 261 261 260 260 261 262 263 265 266 268 269 270 271 272 273 274 275 275 275
246 246 247 247 247 246 247 247 247 247 248 249 250 251 251 251 253 254 256 258 259 260 261 262 262 262 264 264 264 263 262 261 261 261 262 263 264 266 267 269 270 271 272 273 273 273 274 274 274
247 248 248 247 247 247 247 247 247 248 248 249 250 251 251 252 253 254 255 257 258 259 260 261 261 262 264 264 263 262 261 261 262 262 262 264 265 267 268 269 270 271 272 273 273 273 273 273 273
248 248 247 246 246 247 247 248 249 250 250 250 251 252 253 253 253 254 255 256 258 259 260 261 262 262 263 264 263 261 260 261 261 263 264 265 267 268 269 269 270 272 273 273 273 274 273 272 271
250 249 248 246 246 247 247 248 249 250 251 251 251 252 253 253 253 254 255 256 258 258 260 261 263 263 263 263 262 261 260 261 262 263 265 266 267 268 270 270 271 272 272 272 272 273 272 271 271
251 250 248 247 247 247 247 247 249 250 251 252 251 252 252 253 253 253 254 256 258 259 260 260 261 262 262 262 262 261 261 263 264 264 265 267 268 269 270 271 271 272 272 273 273 273 272 272 272
251 249 248 249 249 248 248 248 249 250 252 252 252 252 252 253 255 255 255 257 257 258 259 259 259 260 262 262 263 263 263 263 264 266 267 269 270 271 271 271 270 271 272 272 273 274 274 273 273
251 250 249 249 250 250 249 249 250 251 252 252 253 253 253 252 254 254 255 256 257 258 259 260 260 261 261 262 263 264 264 265 267 267 269 269 269 270 272 272 272 271 272 272 273 274 274 274 274
251 251 250 249 250 250 251 251 251 252 253 253 253 254 254 253 254 255 255 257 258 259 260 260 261 260 261 262 263 264 266 267 267 268 270 271 271 272 273 272 271 271 271 272 273 274 275 275 275
254 252 251 250 250 251 252 251 250 252 252 252 253 252 253 254 255 256 257 258 258 259 260 261 261 261 261 261 262 265 266 267 267 268 270 271 272 272 272 271 271 271 271 272 273 274 275 275 275
256 254 253 252 251 252 253 253 252 253 253 253 253 253 254 255 256 257 257 258 259 259 261 262 262 262 262 263 264 266 267 269 269 270 271 272 272 272 271 271 271 272 273 273 274 275 275 275 275
257 256 255 254 253 254 254 253 252 253 253 254 256 256 256 256 257 257 258 259 259 259 260 261 263 264 265 265 267 268 269 270 270 271 272 272 272 272 272 272 272 273 273 274 275 276 276 276 276
258 257 257 255 255 254 253 252 253 254 254 254 254 256 257 258 258 259 260 260 260 260 260 261 263 264 266 267 268 269 270 271 271 272 273 272 272 272 272 274 274 274 274 275 275 276 276 277 277
258 258 257 257 256 255 254 253 252 253 254 254 254 255 255 257 259 259 260 261 262 262 261 262 264 265 267 268 269 270 270 271 272 273 273 272 272 273 273 273 273 274 274 276 275 276 276 277 277
257 257 257 257 257 257 256 256 251 252 253 254 255 254 255 257 259 259 260 261 262 263 263 264 265 267 268 269 270 270 271 272 273 273 273 273 272 272 272 273 273 274 275 275 275 275 276 277 277
257 258 258 257 257 257 257 257 253 252 251 252 254 254 255 257 259 260 261 261 262 263 264 265 266 268 269 270 270 270 271 271 272 273 273 272 272 273 274 275 275 275 275 275 275 275 276 277 277
256 258 259 258 257 257 256 258 256 253 253 253 254 255 256 257 258 259 260 261 263 264 264 265 267 268 269 270 270 271 271 271 271 273 273 273 273 274 274 276 276 275 275 275 275 276 276 277 276
255 256 258 258 258 258 257 258 258 257 256 255 256 256 256 257 258 259 261 263 265 266 266 266 267 267 268 269 270 270 270 271 271 272 272 274 274 274 275 276 276 276 276 276 276 276 276 276 276
255 254 257 260 260 259 258 259 258 258 258 257 256 256 257 258 259 261 262 264 266 267 267 267 267 267 267 268 270 270 271 273 273 274 273 274 275 275 276 276 277 277 276 277 276 275 275 275 275
254 253 256 260 260 260 261 261 259 258 259 258 257 256 257 259 260 261 263 265 266 267 267 267 267 267 267 268 269 271 272 274 275 275 275 275 275 275 276 276 277 276 277 276 276 276 276 275 274
255 254 255 258 260 262 262 261 261 259 260 260 258 258 258 260 261 263 264 266 267 267 267 267 266 266 267 269 270 271 272 274 275 276 276 276 276 276 276 276 277 277 276 276 277 276 276 276 275
254 254 256 258 259 262 264 263 263 262 262 261 260 259 260 260 262 264 265 267 267 267 267 267 267 267 268 268 270 271 272 273 275 276 277 277 277 277 277 276 277 277 277 277 276 276 276 276 275
255 255 257 260 260 262 265 265 264 263 262 262 262 261 262 263 265 267 267 268 268 268 268 268 268 268 268 269 270 271 272 274 275 277 277 277 277 278 278 277 277 277 276 276 276 276 276 275 275
Height
5813 5815 5816 5818 5820 5822 5823 5826 5827 5828 5830 5831 5832 5833 5835 5836 5838 5841 5840 5840 5840 5841 5842 5843 5843 5844 5844 5845 5845 5846 5847 5847 5848 5848 5849 5849 5849 5850 5850 5851 5851 5852 5852 5853 5853 5854 5854 5854 5854
5809 5811 5813 5814 5815 5817 5821 5822 5824 5825 5826 5828 5829 5830 5831 5832 5834 5835 5836 5837 5837 5838 5839 5840 5841 5841 5842 5842 5843 5843 5844 5845 5845 5846 5846 5847 5847 5848 5848 5849 5849 5850 5850 5851 5851 5852 5852 5852 5852
5804 5805 5808 5809 5810 5814 5817 5818 5820 5821 5823 5824 5825 5826 5828 5829 5830 5832 5833 5834 5835 5835 5836 5837 5838 5838 5839 5839 5840 5841 5841 5842 5842 5843 5844 5844 5845 5845 5846 5846 5847 5847 5848 5848 5849 5849 5849 5850 5850
5799 5800 5802 5804 5806 5809 5812 5814 5815 5817 5819 5820 5822 5823 5825 5826 5827 5828 5829 5830 5831 5832 5833 5834 5834 5835 5835 5836 5837 5837 5838 5838 5839 5840 5840 5841 5842 5842 5843 5843 5844 5844 5845 5845 5846 5846 5846 5847 5847
5793 5794 5796 5798 5801 5804 5806 5808 5810 5812 5814 5816 5818 5819 5821 5822 5823 5824 5825 5826 5828 5829 5829 5830 5831 5831 5832 5832 5833 5833 5834 5834 5835 5836 5837 5837 5838 5839 5839 5840 5841 5841 5842 5842 5842 5842 5843 5843 5843
5787 5789 5791 5793 5797 5799 5801 5803 5805 5807 5809 5811 5813 5815 5816 5818 5819 5820 5821 5822 5823 5824 5825 5826 5827 5827 5827 5828 5828 5829 5829 5830 5831 5832 5832 5833 5834 5835 5835 5836 5837 5837 5838 5838 5838 5838 5839 5839 5839
5782 5784 5786 5789 5792 5794 5797 5798 5800 5802 5804 5806 5808 5810 5811 5813 5814 5816 5817 5818 5819 5819 5820 5821 5822 5822 5823 5823 5823 5824 5824 5825 5826 5827 5828 5829 5830 5830 5831 5832 5832 5833 5833 5833 5833 5834 5834 5834 5834
5776 5779 5781 5784 5787 5789 5791 5792 5794 5796 5798 5800 5802 5805 5807 5808 5809 5811 5812 5813 5814 5815 5815 5816 5817 5817 5817 5818 5818 5818 5819 5819 5821 5822 5823 5824 5825 5825 5826 5827 5827 5828 5828 5828 5828 5828 5828 5829 5829
5770 5773 5776 5780 5782 5784 5785 5787 5789 5790 5792 5794 5797 5799 5801 5803 5804 5805 5807 5808 5809 5810 5810 5811 5811 5811 5812 5812 5811 5812 5812 5814 5815 5817 5818 5819 5820 5820 5821 5821 5822 5822 5822 5823 5823 5823 5823 5823 5823
5764 5767 5772 5774 5775 5777 5778 5780 5782 5784 5786 5789 5791 5793 5795 5797 5798 5800 5801 5802 5803 5804 5805 5805 5805 5806 5806 5806 5805 5805 5806 5808 5809 5811 5812 5813 5814 5815 5815 5815 5816 5816 5816 5816 5816 5816 5816 5817 5817
5757 5761 5765 5766 5768 5770 5772 5774 5776 5778 5781 5783 5785 5787 5788 5790 5792 5793 5795 5796 5797 5798 5799 5799 5800 5800 5800 5800 5800 5800 5801 5802 5803 5805 5806 5807 5808 5808 5809 5809 5809 5809 5809 5810 5810 5810 5810 5810 5810
5751 5754 5757 5759 5761 5763 5765 5767 5770 5772 5775 5776 5778 5780 5782 5784 5785 5787 5788 5790 5791 5792 5793 5793 5794 5794 5794 5794 5794 5795 5796 5796 5798 5799 5800 5801 5801 5802 5802 5802 5802 5802 5802 5802 5802 5802 5802 5802 5802
5744 5747 5750 5752 5753 5755 5758 5760 5763 5766 5768 5769 5771 5773 5775 5777 5778 5780 5781 5783 5784 5786 5786 5787 5788 5788 5789 5789 5789 5789 5790 5791 5792 5793 5793 5794 5794 5795 5795 5795 5795 5795 5795 5795 5795 5794 5794 5794 5794
5737 5739 5742 5744 5746 5748 5751 5753 5756 5760 5761 5763 5764 5767 5768 5770 5771 5773 5775 5776 5777 5778 5779 5781 5781 5782 5783 5783 5783 5784 5784 5785 5785 5786 5786 5787 5787 5787 5787 5787 5787 5787 5787 5787 5787 5786 5786 5786 5785
5729 5732 5734 5737 5739 5741 5743 5746 5750 5752 5753 5756 5757 5759 5761 5763 5764 5766 5768 5769 5770 5771 5772 5773 5774 5775 5776 5777 5777 5777 5778 5778 5779 5779 5779 5779 5779 5779 5779 5779 5779 5779 5778 5778 5778 5777 5777 5777 5776
5722 5724 5727 5730 5732 5734 5737 5740 5744 5744 5746 5748 5750 5752 5754 5755 5757 5759 5760 5762 5763 5764 5765 5766 5767 5768 5769 5770 5770 5770 5770 5771 5771 5771 5771 5771 5771 5771 5770 5770 5770 5769 5769 5769 5769 5768 5768 5767 5766
5714 5716 5719 5723 5724 5726 5728 5732 5736 5736 5738 5741 5743 5744 5746 5748 5750 5751 5753 5754 5755 5756 5757 5758 5759 5760 5760 5761 5762 5762 5762 5762 5762 5762 5762 5762 5762 5761 5761 5760 5760 5759 5759 5759 5759 5759 5758 5757 5756
5708 5710 5712 5714 5716 5718 5720 5724 5727 5728 5730 5733 5734 5736 5738 5740 5742 5743 5745 5746 5747 5748 5749 5750 5751 5752 5752 5753 5753 5754 5754 5754 5754 5753 5753 5753 5752 5752 5751 5751 5750 5750 5749 5749 5748 5748 5747 5746 5745
5700 5701 5703 5706 5707 5709 5711 5714 5718 5719 5721 5724 5726 5728 5730 5732 5734 5735 5736 5737 5739 5740 5741 5742 5743 5743 5744 5744 5745 5745 5745 5745 5744 5744 5743 5743 5742 5742 5741 5741 5740 5740 5739 5738 5738 5737 5736 5735 5734
5692 5693 5695 5698 5699 5700 5702 5705 5709 5711 5713 5716 5718 5720 5722 5724 5725 5727 5728 5729 5730 5731 5732 5733 5734 5734 5735 5735 5736 5736 5736 5735 5735 5734 5734 5733 5732 5731 5731 5730 5730 5729 5729 5728 5727 5726 5725 5724 5722
5684 5686 5688 5689 5690 5691 5693 5696 5700 5703 5705 5707 5709 5711 5713 5715 5717 5718 5720 5720 5721 5723 5723 5724 5725 5725 5726 5726 5726 5726 5726 5725 5725 5724 5723 5723 5722 5721 5720 5720 5719 5718 5718 5717 5716 5715 5714 5713 5711
5677 5679 5680 5681 5682 5683 5685 5686 5692 5694 5696 5698 5701 5703 5705 5707 5708 5709 5711 5711 5712 5714 5714 5715 5716 5716 5716 5716 5716 5716 5716 5715 5714 5713 5713 5712 5711 5710 5710 5709 5708 5707 5706 5705 5704 5703 5702 5701 5699
5670 5671 5672 5672 5673 5674 5677 5678 5683 5686 5688 5691 5693 5694 5696 5698 5699 5701 5702 5702 5703 5704 5705 5706 5706 5707 5707 5706 5706 5706 5706 5705 5704 5703 5702 5701 5700 5699 5699 5698 5697 5696 5695 5694 5692 5691 5690 5689 5688
5662 5663 5664 5664 5664 5666 5670 5670 5674 5678 5681 5683 5685 5686 5688 5689 5691 5691 5692 5693 5694 5695 5695 5696 5696 5697 5696 5696 5696 5696 5695 5695 5694 5693 5692 5691 5690 5688 5687 5686 5685 5684 5683 5682 5681 5680 5678 5677 5676
5655 5657 5657 5656 5656 5659 5662 5662 5666 5670 5672 5674 5676 5678 5679 5680 5681 5683 5683 5684 5685 5685 5686 5686 5686 5687 5687 5686 5686 5685 5685 5684 5683 5682 5681 5680 5679 5678 5676 5675 5674 5673 5672 5671 5669 5668 5667 5666 5665
5647 5649 5650 5650 5650 5652 5653 5654 5660 5662 5663 5665 5667 5669 5670 5671 5673 5673 5674 5675 5675 5676 5676 5676 5676 5676 5676 5676 5676 5675 5674 5673 5672 5671 5671 5669 5668 5667 5665 5664 5662 5661 5660 5659 5658 5657 5655 5654 5653
5639 5640 5643 5643 5642 5643 5645 5648 5652 5654 5655 5656 5657 5659 5661 5662 5663 5664 5665 5665 5665 5665 5665 5666 5666 5666 5666 5666 5665 5665 5664 5663 5662 5661 5659 5658 5657 5655 5653 5652 5651 5650 5648 5647 5646 5645 5644 5643 5641
5632 5634 5635 5634 5634 5635 5637 5640 5644 5646 5646 5648 5649 5650 5651 5652 5653 5654 5655 5655 5655 5655 5655 5655 5655 5655 5655 5655 5654 5654 5653 5652 5651 5649 5648 5647 5645 5643 5642 5641 5639 5638 5637 5636 5634 5633 5632 5630 5630
5625 5627 5627 5627 5627 5628 5629 5635 5636 5638 5638 5639 5640 5641 5642 5643 5643 5644 5644 5645 5645 5644 5644 5644 5644 5645 5644 5644 5643 5643 5642 5641 5640 5638 5637 5635 5634 5632 5630 5629 5627 5626 5624 5623 5622 5621 5620 5619 5618
5616 5618 5619 5620 5621 5621 5622 5628 5628 5629 5629 5630 5631 5631 5632 5633 5634 5634 5634 5634 5634 5634 5634 5634 5634 5634 5633 5633 5632 5632 5631 5630 5629 5627 5626 5624 5622 5621 5619 5617 5615 5614 5612 5611 5610 5609 5608 5607 5606